Regional Weather Roundup
Issued by NWS

Current Version | Previous Version | Text Only | Print | Product List | Glossary Off
Versions: 1 2 3 4 5 6 7 8 9 10 11 12 13 14 15 16 17 18 19 20 21 22 23 24 25 26 27 28 29 30 31 32 33 34 35 36 37 38 39 40 41 42 43 44 45 46 47 48 49 50

000
ASUS44 KMEG 222310
RWRTN
TENNESSEE HOURLY STATE WEATHER ROUNDUP
NATIONAL WEATHER SERVICE MEMPHIS TN
500 PM CST MON DEC 22 2014

TNZ002-004-019-021-049-052-054-088>092-230000-
WEST TENNESSEE

CITY           SKY/WX    TMP DP  RH WIND       PRES   REMARKS
MEMPHIS INTL   LGT RAIN  57  53  86 S9        29.61S
NWS MEMPHIS      N/A     55 N/A N/A MISG        N/A
JACKSON        CLOUDY    55  50  83 S12G21    29.62F
DYERSBURG      CLOUDY    54  41  62 S7        29.63S
UNION CITY     CLOUDY    52  50  93 S9        29.61S
PARIS          CLOUDY    50  46  87 SE12      29.64S
HUNTINGDON     CLOUDY    52  48  86 SE12      29.64F
LEXINGTON      CLOUDY    54  48  82 SE9       29.66F
SAVANNAH       CLOUDY    52  52 100 SE9       29.68F
$$

TNZ008-025-027-028-033-062-065-066-230000-
NORTH MIDDLE TENNESSEE

CITY           SKY/WX    TMP DP  RH WIND       PRES   REMARKS
NASHVILLE      CLOUDY    52  48  86 SE12      29.74F
CLARKSVILLE    CLOUDY    53  48  83 SE13      29.68F
SMYRNA         CLOUDY    51  49  93 S6        29.76F
COOKEVILLE     MOCLDY    52  46  82 S9        29.78F
CROSSVILLE     CLOUDY    50  45  83 S9        29.82F
$$

TNZ061-075-076-078-094-096-097-230000-
SOUTH MIDDLE TENNESSEE

CITY           SKY/WX    TMP DP  RH WIND       PRES   REMARKS
FAYETTEVILLE   CLOUDY    48  46  93 MISG      29.76F
TULLAHOMA      CLOUDY    48  46  93 SE10      29.78S
WINCHESTER     CLOUDY    48  46  93 SE17      29.78F
MCMINNVILLE    MOCLDY    52  50  93 CALM      29.78F
COLUMBIA       CLOUDY   N/A N/A N/A SE6       29.71F
SHELBYVILLE    CLOUDY    52  48  87 SE9       29.77F
$$

TNZ017-018-042-046-047-230000-
NORTHEAST TENNESSEE

CITY           SKY/WX    TMP DP  RH WIND       PRES   REMARKS
TRI CITIES     CLOUDY    54  40  59 SE8       29.89R
ELIZABETHTON   CLOUDY    48  39  71 E9        29.90F
$$

TNZ012-013-036-069-073-074-230000-
CENTRAL EAST TENNESSEE

CITY           SKY/WX    TMP DP  RH WIND       PRES   REMARKS
KNOXVILLE      MOCLDY    54  43  66 CALM      29.83F
OAK RIDGE      CLOUDY    53  43  68 CALM      29.85F
GATLINBURG     PTCLDY    54  43  66 N3        29.84S
MORRISTOWN     CLOUDY    54  43  66 E6        29.85F
$$

TNZ083-085-099-230000-
SOUTHEAST TENNESSEE

CITY           SKY/WX    TMP DP  RH WIND       PRES   REMARKS
CHATTANOOGA    CLOUDY    50  45  83 S5        29.85F
$$

SKY/WX REPORTED AS FAIR MEANS FEW OR NO CLOUDS BELOW
12 THOUSAND FEET.




USA.gov is the U.S. government's official web portal to all federal, state and local government web resources and services.